Location: Calgary
(51.0833°N, 114.0833°W)
Time: 21:24:52
(UTC-06:00)

Envisat - Visible Passes

Search period start: 18 July 2018 00:00
Search period end: 28 July 2018 00:00
Orbit: 764 x 766 km, 98.2° (Epoch: 18 July)

Date Brightness Start Highest point End Pass type
(mag) Time Alt. Az. Time Alt. Az. Time Alt. Az.
20 Jul 6.2 22:35:42 10° W 22:36:17 10° W 22:36:53 10° WNW visible
23 Jul 5.8 22:22:40 10° WSW 22:24:57 13° W 22:27:13 10° WNW visible
26 Jul 5.7 22:10:33 10° SW 22:13:37 16° W 22:16:41 10° NW visible
